Location: Hillern
(53.0557°N, 9.8577°E)
Time: 19:18:51
(UTC+00:00)

Okean O Rocket - Pass Details

Date: 19 May 2025
Orbit: 614 x 636 km, 98.0° (Epoch: 20 June)

Event Time Altitude Azimuth Distance (km) Brightness Sun altitude
Rises 19:57:56 0° 175° (S) 2,907 4.6 -5.3°
Reaches altitude 10° 20:00:10 10° 180° (S) 2,000 3.8 -5.5°
Maximum altitude 20:04:27 56° 259° (W) 749 2.2 -6.0°
Drops below altitude 10° 20:08:44 10° 338° (NNW) 2,003 5.5 -6.4°
Sets 20:10:58 0° 343° (NNW) 2,911 6.3 -6.7°
